User: anonymous   Login
Location: Unspecified
(0.0000°N, 0.0000°E)
Time: 09:30:19
(UTC+00:00)
Language:

CAPE 1 - Orbit

View from above orbital plane
View from above orbital plane
View from above satellite
View from above satellite

Ground track
Ground track

The orbit data is extracted from the following two-line orbital elements,

1 31130U 07012P   17327.51422037  .00000280  00000-0  69721-4 0  9991
2 31130  98.0998 271.7496 0097499  65.4118 295.7202 14.56217000562435
Epoch (UTC): 23 November 2017 12:20:28
Eccentricity: 0.0097499
inclination: 98.0998°
perigee height: 636 km
apogee height: 774 km
right ascension of ascending node: 271.7496°
argument of perigee: 65.4118°
revolutions per day: 14.56217000
mean anomaly at epoch: 295.7202°
orbit number at epoch: 56243

The dashed part of the orbit path shows where the satellite is in the earth's shadow,  

DLR